| time (UTC) | temp F | wind direction | speed knots | gust knots | rain 1hr in | rain 24hr in | rain mn in | humidity % | barometer mb |
| 20260903164303 | 67 | 22 | 0.0 | 0.0 | 0.00 | 0.00 | 0.00 | 62 | 948.0 |
| 20260903163739 | 67 | 22 | 0.0 | 2.6 | 0.00 | 0.00 | 0.00 | 62 | 948.0 |
| 20260903163258 | 67 | 22 | 0.0 | 3.5 | 0.00 | 0.00 | 0.00 | 61 | 947.0 |
| 20260903162739 | 68 | 22 | 0.0 | 3.5 | 0.00 | 0.00 | 0.00 | 61 | 947.0 |
| 20260903162240 | 68 | 22 | 2.6 | 3.5 | 0.00 | 0.00 | 0.00 | 59 | 947.0 |
| 20260903161740 | 69 | 22 | 0.9 | 1.7 | 0.00 | 0.00 | 0.00 | 58 | 948.0 |
| 20260903161240 | 70 | 22 | 0.9 | 5.2 | 0.00 | 0.00 | 0.00 | 57 | 948.0 |
| 20260903160740 | 71 | 0 | 0.0 | 5.2 | 0.00 | 0.00 | 0.00 | 56 | 948.0 |
| 20260903160240 | 71 | 0 | 0.0 | 5.2 | 0.00 | 0.00 | 0.00 | 54 | 948.0 |
| 20260903155756 | 72 | 0 | 5.2 | 5.2 | 0.00 | 0.00 | 0.00 | 53 | 948.0 |
| 20260903155240 | 72 | 315 | 0.0 | 0.0 | 0.00 | 0.00 | 0.00 | 52 | 948.0 |
| 20260903154742 | 72 | 315 | 0.0 | 0.0 | 0.00 | 0.00 | 0.00 | 52 | 947.0 |
| 20260903154240 | 72 | 315 | 0.0 | 0.0 | 0.00 | 0.00 | 0.00 | 51 | 947.0 |
| 20260903153740 | 73 | 315 | 0.0 | 0.0 | 0.00 | 0.00 | 0.00 | 51 | 947.0 |
| 20260903153240 | 73 | 315 | 0.0 | 0.0 | 0.00 | 0.00 | 0.00 | 51 | 947.0 |
| 20260903152740 | 73 | 315 | 0.0 | 0.0 | 0.00 | 0.00 | 0.00 | 51 | 947.0 |
| 20260903152256 | 74 | 315 | 0.0 | 0.0 | 0.00 | 0.00 | 0.00 | 51 | 947.0 |
| 20260903151741 | 74 | 315 | 0.0 | 0.0 | 0.00 | 0.00 | 0.00 | 51 | 947.0 |
| 20260903151251 | 74 | 315 | 0.0 | 0.0 | 0.00 | 0.00 | 0.00 | 51 | 947.0 |
| 20260903150740 | 74 | 315 | 0.0 | 0.0 | 0.00 | 0.00 | 0.00 | 50 | 947.0 |
| 20260903150239 | 74 | 315 | 0.0 | 0.0 | 0.00 | 9.83 | 0.00 | 50 | 947.0 |
| 20260903145810 | 74 | 315 | 0.0 | 0.0 | 0.00 | 0.00 | 0.00 | 50 | 947.0 |
| 20260903145240 | 74 | 315 | 0.0 | 0.0 | 0.00 | 0.00 | 0.00 | 50 | 947.0 |
| 20260903144804 | 74 | 315 | 0.0 | 0.0 | 0.00 | 0.00 | 0.00 | 49 | 947.0 |
| 20260903144239 | 74 | 315 | 0.0 | 0.0 | 0.00 | 0.00 | 0.00 | 49 | 947.0 |
| 20260903143750 | 74 | 315 | 0.0 | 0.0 | 0.00 | 0.00 | 0.00 | 48 | 947.0 |
| 20260903143248 | 75 | 315 | 0.0 | 0.0 | 0.00 | 0.00 | 0.00 | 47 | 947.0 |
| 20260903142744 | 75 | 315 | 0.0 | 0.0 | 0.00 | 0.00 | 0.00 | 46 | 947.0 |
| 20260903142240 | 75 | 315 | 0.0 | 0.0 | 0.00 | 0.00 | 0.00 | 46 | 947.0 |
| 20260903141739 | 76 | 315 | 0.0 | 0.0 | 0.00 | 0.00 | 0.00 | 45 | 947.0 |
| 20260903141304 | 76 | 315 | 0.0 | 0.0 | 0.00 | 0.00 | 0.00 | 45 | 947.0 |
| 20260903140802 | 76 | 315 | 0.0 | 0.0 | 0.00 | 0.00 | 0.00 | 45 | 947.0 |
| 20260903140300 | 76 | 315 | 0.0 | 0.0 | 0.00 | 0.00 | 0.00 | 44 | 947.0 |
| 20260903135741 | 77 | 315 | 0.0 | 0.0 | 0.00 | 0.00 | 0.00 | 44 | 947.0 |
| 20260903135246 | 77 | 315 | 0.0 | 0.0 | 0.00 | 0.00 | 0.00 | 44 | 947.0 |
| 20260903134740 | 77 | 315 | 0.0 | 0.0 | 0.00 | 0.00 | 0.00 | 44 | 947.0 |
| 20260903134320 | 78 | 315 | 0.0 | 0.0 | 0.00 | 0.00 | 0.00 | 44 | 947.0 |
| 20260903133740 | 78 | 315 | 0.0 | 0.0 | 0.00 | 0.00 | 0.00 | 43 | 947.0 |
| 20260903133240 | 79 | 315 | 0.0 | 0.0 | 0.00 | 0.00 | 0.00 | 44 | 947.0 |
| 20260903132801 | 79 | 315 | 0.0 | 0.0 | 0.00 | 0.00 | 0.00 | 44 | 947.0 |
| 20260903132240 | 79 | 315 | 0.0 | 0.0 | 0.00 | 0.00 | 0.00 | 44 | 947.0 |
| 20260903131838 | 79 | 315 | 0.0 | 0.0 | 0.00 | 0.00 | 0.00 | 43 | 947.0 |
| 20260903131239 | 79 | 315 | 0.0 | 0.0 | 0.00 | 0.00 | 0.00 | 43 | 947.0 |
| 20260903130741 | 79 | 338 | 0.0 | 0.0 | 0.00 | 0.00 | 0.00 | 43 | 947.0 |
| 20260903130239 | 80 | 338 | 0.0 | 1.7 | 0.00 | 0.00 | 0.00 | 43 | 947.0 |
| 20260903125739 | 80 | 315 | 0.0 | 1.7 | 0.00 | 0.00 | 0.00 | 43 | 947.0 |
| 20260903125240 | 80 | 315 | 0.0 | 1.7 | 0.00 | 0.00 | 0.00 | 42 | 947.0 |
| 20260903124740 | 80 | 338 | 0.0 | 0.0 | 0.00 | 0.00 | 0.00 | 42 | 947.0 |
| 20260903124257 | 81 | 338 | 0.0 | 0.0 | 0.00 | 0.00 | 0.00 | 42 | 948.0 |
| 20260903123739 | 82 | 338 | 0.0 | 0.0 | 0.00 | 0.00 | 0.00 | 42 | 947.0 |
| 20260903123241 | 82 | 338 | 0.0 | 0.0 | 0.00 | 0.00 | 0.00 | 42 | 948.0 |
| 20260903122740 | 82 | 338 | 0.0 | 0.0 | 0.00 | 0.00 | 0.00 | 42 | 948.0 |
| 20260903122240 | 82 | 338 | 0.0 | 0.0 | 0.00 | 0.00 | 0.00 | 43 | 947.0 |
| 20260903121741 | 83 | 315 | 0.0 | 0.0 | 0.00 | 0.00 | 0.00 | 43 | 948.0 |
| 20260903121240 | 83 | 315 | 0.0 | 0.0 | 0.00 | 0.00 | 0.00 | 43 | 948.0 |
| 20260903120757 | 83 | 315 | 0.0 | 0.0 | 0.00 | 0.00 | 0.00 | 43 | 948.0 |
| 20260903120240 | 82 | 315 | 0.0 | 0.0 | 0.00 | 0.00 | 0.00 | 43 | 948.0 |
| 20260903115752 | 83 | 315 | 0.0 | 0.0 | 0.00 | 0.00 | 0.00 | 43 | 948.0 |
| 20260903115239 | 84 | 315 | 0.0 | 0.0 | 0.00 | 0.00 | 0.00 | 42 | 948.0 |
| 20260903114740 | 84 | 315 | 0.0 | 0.0 | 0.00 | 0.00 | 0.00 | 43 | 948.0 |
| 20260903114240 | 84 | 292 | 0.0 | 0.0 | 0.00 | 0.00 | 0.00 | 43 | 948.0 |
| 20260903113739 | 83 | 0 | 0.0 | 0.0 | 0.00 | 0.00 | 0.00 | 43 | 948.0 |
| 20260903113306 | 83 | 292 | 0.0 | 0.0 | 0.00 | 0.00 | 0.00 | 44 | 948.0 |
| 20260903112740 | 83 | 315 | 0.0 | 0.0 | 0.00 | 0.00 | 0.00 | 45 | 948.0 |
| 20260903112253 | 83 | 292 | 0.0 | 0.0 | 0.00 | 0.00 | 0.00 | 46 | 948.0 |
| 20260903111740 | 82 | 292 | 0.0 | 0.9 | 0.00 | 0.00 | 0.00 | 46 | 948.0 |
| 20260903111248 | 82 | 0 | 0.0 | 0.9 | 0.00 | 0.00 | 0.00 | 46 | 948.0 |
| 20260903110740 | 82 | 0 | 0.0 | 0.9 | 0.00 | 0.00 | 0.00 | 45 | 949.0 |
| 20260903110240 | 82 | 0 | 0.0 | 0.0 | 0.00 | 0.00 | 0.00 | 46 | 949.0 |
| 20260903105738 | 82 | 0 | 0.0 | 0.0 | 0.00 | 0.00 | 0.00 | 47 | 949.0 |
| 20260903105239 | 82 | 0 | 0.0 | 0.0 | 0.00 | 0.00 | 0.00 | 48 | 949.0 |
| 20260903104806 | 82 | 0 | 0.0 | 0.0 | 0.00 | 0.00 | 0.00 | 48 | 949.0 |
| 20260903104239 | 82 | 0 | 0.0 | 0.0 | 0.00 | 0.00 | 0.00 | 48 | 949.0 |
| 20260903103749 | 82 | 0 | 0.0 | 0.0 | 0.00 | 0.00 | 0.00 | 49 | 949.0 |
| 20260903103239 | 82 | 0 | 0.0 | 0.0 | 0.00 | 0.00 | 0.00 | 49 | 949.0 |
| 20260903102739 | 82 | 0 | 0.0 | 0.0 | 0.00 | 0.00 | 0.00 | 49 | 949.0 |
| 20260903102240 | 82 | 0 | 0.0 | 0.0 | 0.00 | 0.00 | 0.00 | 50 | 949.0 |
| 20260903101739 | 82 | 0 | 0.0 | 0.0 | 0.00 | 0.00 | 0.00 | 50 | 949.0 |
| 20260903101306 | 82 | 0 | 0.0 | 0.0 | 0.00 | 0.00 | 0.00 | 50 | 949.0 |
| 20260903100739 | 82 | 0 | 0.0 | 0.0 | 0.00 | 0.00 | 0.00 | 51 | 949.0 |
| 20260903100251 | 82 | 0 | 0.0 | 0.0 | 0.00 | 0.00 | 0.00 | 51 | 949.0 |
| 20260903095740 | 82 | 338 | 0.0 | 0.0 | 0.00 | 0.00 | 0.00 | 52 | 949.0 |
| 20260903095247 | 82 | 0 | 0.0 | 0.0 | 0.00 | 0.00 | 0.00 | 54 | 949.0 |
| 20260903094739 | 81 | 0 | 0.0 | 0.0 | 0.00 | 0.00 | 0.00 | 55 | 949.0 |
| 20260903094239 | 80 | 0 | 0.0 | 0.0 | 0.00 | 0.00 | 0.00 | 56 | 950.0 |
| 20260903093805 | 80 | 0 | 0.0 | 2.6 | 0.00 | 0.00 | 0.00 | 57 | 950.0 |
| 20260903093239 | 79 | 0 | 0.0 | 2.6 | 0.00 | 0.00 | 0.00 | 58 | 950.0 |
| 20260903092802 | 79 | 0 | 0.0 | 2.6 | 0.00 | 0.00 | 0.00 | 60 | 950.0 |
| 20260903092240 | 78 | 338 | 0.0 | 0.0 | 0.00 | 0.00 | 0.00 | 62 | 950.0 |
| 20260903091746 | 77 | 338 | 0.0 | 0.0 | 0.00 | 0.00 | 0.00 | 62 | 950.0 |
| 20260903091239 | 76 | 338 | 0.0 | 0.0 | 0.00 | 0.00 | 0.00 | 63 | 950.0 |
| 20260903090741 | 76 | 338 | 0.0 | 0.0 | 0.00 | 0.00 | 0.00 | 64 | 950.0 |
| 20260903090240 | 75 | 338 | 0.0 | 0.0 | 0.00 | 0.00 | 0.00 | 64 | 950.0 |
| 20260903085740 | 76 | 338 | 0.0 | 0.0 | 0.00 | 0.00 | 0.00 | 63 | 950.0 |
| 20260903085305 | 76 | 338 | 0.0 | 0.0 | 0.00 | 0.00 | 0.00 | 63 | 950.0 |
| 20260903084740 | 77 | 338 | 0.0 | 0.0 | 0.00 | 0.00 | 0.00 | 64 | 950.0 |
| 20260903084259 | 77 | 338 | 0.0 | 0.0 | 0.00 | 0.00 | 0.00 | 64 | 950.0 |
| 20260903083738 | 76 | 338 | 0.0 | 0.0 | 0.00 | 0.00 | 0.00 | 65 | 950.0 |
| 20260903083244 | 76 | 338 | 0.0 | 0.0 | 0.00 | 0.00 | 0.00 | 67 | 950.0 |
| 20260903082738 | 75 | 338 | 0.0 | 0.0 | 0.00 | 0.00 | 0.00 | 68 | 950.0 |
| 20260903082239 | 74 | 338 | 0.0 | 0.0 | 0.00 | 0.00 | 0.00 | 69 | 950.0 |
| 20260903081739 | 74 | 338 | 0.0 | 0.0 | 0.00 | 0.00 | 0.00 | 71 | 950.0 |
| 20260903081240 | 74 | 338 | 0.0 | 0.0 | 0.00 | 0.00 | 0.00 | 72 | 950.0 |
| 20260903080757 | 73 | 338 | 0.0 | 0.0 | 0.00 | 0.00 | 0.00 | 74 | 950.0 |
| 20260903080238 | 72 | 338 | 0.0 | 0.0 | 0.00 | 0.00 | 0.00 | 76 | 950.0 |
| 20260903075742 | 72 | 338 | 0.0 | 0.0 | 0.00 | 0.00 | 0.00 | 77 | 950.0 |
| 20260903075238 | 71 | 315 | 0.0 | 0.0 | 0.00 | 0.00 | 0.00 | 78 | 950.0 |
| 20260903074740 | 71 | 315 | 0.0 | 0.0 | 0.00 | 0.00 | 0.00 | 80 | 950.0 |
| 20260903074238 | 70 | 292 | 0.0 | 0.0 | 0.00 | 0.00 | 0.00 | 81 | 950.0 |
| 20260903073740 | 70 | 292 | 0.0 | 0.0 | 0.00 | 0.00 | 0.00 | 82 | 950.0 |
| 20260903073259 | 69 | 292 | 0.0 | 0.0 | 0.00 | 0.00 | 0.00 | 82 | 950.0 |
| 20260903072739 | 69 | 292 | 0.0 | 0.0 | 0.00 | 0.00 | 0.00 | 83 | 950.0 |
| 20260903072255 | 68 | 292 | 0.0 | 0.0 | 0.00 | 0.00 | 0.00 | 83 | 950.0 |
| 20260903071740 | 68 | 292 | 0.0 | 0.0 | 0.00 | 0.00 | 0.00 | 84 | 950.0 |
| 20260903071239 | 67 | 292 | 0.0 | 0.0 | 0.00 | 0.00 | 0.00 | 84 | 950.0 |
| 20260903070739 | 66 | 292 | 0.0 | 0.0 | 0.00 | 0.00 | 0.00 | 85 | 950.0 |
| 20260903070239 | 66 | 292 | 0.0 | 0.0 | 0.00 | 0.00 | 0.00 | 85 | 950.0 |
| 20260903065738 | 65 | 292 | 0.0 | 0.0 | 0.00 | 0.00 | 0.00 | 85 | 950.0 |
| 20260903065239 | 65 | 292 | 0.0 | 0.0 | 0.00 | 0.00 | 0.00 | 85 | 950.0 |
| 20260903064757 | 64 | 292 | 0.0 | 0.0 | 0.00 | 0.00 | 0.00 | 85 | 950.0 |
| 20260903064253 | 64 | 292 | 0.0 | 0.0 | 0.00 | 0.00 | 0.00 | 86 | 950.0 |
| 20260903063751 | 64 | 292 | 0.0 | 0.0 | 0.00 | 0.00 | 0.00 | 86 | 950.0 |
| 20260903063240 | 63 | 292 | 0.0 | 0.0 | 0.00 | 0.00 | 0.00 | 86 | 950.0 |
| 20260903062739 | 62 | 292 | 0.0 | 0.0 | 0.00 | 0.00 | 0.00 | 85 | 950.0 |
| 20260903062239 | 62 | 292 | 0.0 | 0.0 | 0.00 | 0.00 | 0.00 | 85 | 950.0 |
| 20260903061809 | 62 | 292 | 0.0 | 0.0 | 0.00 | 0.00 | 0.00 | 86 | 950.0 |
| 20260903061305 | 61 | 292 | 0.0 | 0.0 | 0.00 | 0.00 | 0.00 | 86 | 950.0 |
| 20260903060739 | 61 | 292 | 0.0 | 0.0 | 0.00 | 0.00 | 0.00 | 86 | 950.0 |
| 20260903060251 | 60 | 292 | 0.0 | 0.0 | 0.00 | 0.00 | 0.00 | 86 | 950.0 |
| 20260903055740 | 60 | 292 | 0.0 | 0.0 | 0.00 | 0.00 | 0.00 | 85 | 950.0 |
| 20260903055326 | 60 | 292 | 0.0 | 0.0 | 0.00 | 0.00 | 0.00 | 85 | 950.0 |
| 20260903054740 | 60 | 292 | 0.0 | 0.0 | 0.00 | 0.00 | 0.00 | 85 | 950.0 |
| 20260903054239 | 60 | 292 | 0.0 | 0.0 | 0.00 | 0.00 | 0.00 | 85 | 950.0 |
| 20260903053807 | 60 | 292 | 0.0 | 0.0 | 0.00 | 0.00 | 0.00 | 85 | 950.0 |
| 20260903053240 | 60 | 292 | 0.0 | 0.0 | 0.00 | 0.00 | 0.00 | 85 | 950.0 |
| 20260903052842 | 60 | 292 | 0.0 | 0.0 | 0.00 | 0.00 | 0.00 | 85 | 950.0 |
| 20260903052239 | 60 | 292 | 0.0 | 0.0 | 0.00 | 0.00 | 0.00 | 84 | 950.0 |
| 20260903051748 | 60 | 292 | 0.0 | 0.0 | 0.00 | 0.00 | 0.00 | 84 | 950.0 |
| 20260903051240 | 60 | 292 | 0.0 | 0.0 | 0.00 | 0.00 | 0.00 | 84 | 950.0 |
| 20260903050739 | 60 | 292 | 0.0 | 0.0 | 0.00 | 0.00 | 0.00 | 84 | 950.0 |
| 20260903050238 | 60 | 292 | 0.0 | 0.0 | 0.00 | 0.00 | 0.00 | 84 | 950.0 |
| 20260903045740 | 60 | 292 | 0.0 | 0.0 | 0.00 | 0.00 | 0.00 | 84 | 950.0 |
| 20260903045306 | 60 | 292 | 0.0 | 0.0 | 0.00 | 0.00 | 0.00 | 84 | 950.0 |
| 20260903044739 | 60 | 292 | 0.0 | 0.0 | 0.00 | 0.00 | 0.00 | 84 | 950.0 |
| 20260903044251 | 60 | 292 | 0.0 | 0.0 | 0.00 | 0.00 | 0.00 | 84 | 950.0 |
| 20260903043739 | 60 | 292 | 0.0 | 0.0 | 0.00 | 0.00 | 0.00 | 84 | 950.0 |
| 20260903043245 | 60 | 292 | 0.0 | 0.0 | 0.00 | 0.00 | 0.00 | 84 | 950.0 |
| 20260903042738 | 60 | 292 | 0.0 | 0.0 | 0.00 | 0.00 | 0.00 | 84 | 950.0 |
| 20260903042239 | 60 | 292 | 0.0 | 0.0 | 0.00 | 0.00 | 0.00 | 84 | 950.0 |
| 20260903041804 | 60 | 292 | 0.0 | 0.0 | 0.00 | 0.00 | 0.00 | 84 | 950.0 |
| 20260903041239 | 60 | 292 | 0.0 | 0.0 | 0.00 | 0.00 | 0.00 | 84 | 950.0 |
| 20260903040800 | 60 | 292 | 0.0 | 0.0 | 0.00 | 0.00 | 0.00 | 84 | 950.0 |
| 20260903040238 | 60 | 0 | 0.0 | 0.0 | 0.00 | 0.00 | 0.00 | 83 | 950.0 |
| 20260903035746 | 60 | 292 | 0.0 | 0.0 | 0.00 | 0.00 | 0.00 | 83 | 950.0 |
| 20260903035239 | 60 | 292 | 0.0 | 0.0 | 0.00 | 0.00 | 0.00 | 83 | 950.0 |
| 20260903034742 | 60 | 292 | 0.0 | 0.0 | 0.00 | 0.00 | 0.00 | 84 | 950.0 |
| 20260903034239 | 60 | 292 | 0.0 | 0.0 | 0.00 | 0.00 | 0.00 | 84 | 950.0 |
| 20260903033740 | 59 | 292 | 0.0 | 0.0 | 0.00 | 0.00 | 0.00 | 84 | 950.0 |
| 20260903033302 | 59 | 292 | 0.0 | 0.0 | 0.00 | 0.00 | 0.00 | 84 | 950.0 |
| 20260903032739 | 59 | 292 | 0.0 | 0.0 | 0.00 | 0.00 | 0.00 | 83 | 950.0 |
| 20260903032257 | 59 | 292 | 0.0 | 0.0 | 0.00 | 0.00 | 0.00 | 83 | 950.0 |
| 20260903031738 | 59 | 292 | 0.0 | 0.0 | 0.00 | 0.00 | 0.00 | 83 | 950.0 |
| 20260903031241 | 59 | 292 | 0.0 | 0.0 | 0.00 | 0.00 | 0.00 | 83 | 950.0 |
| 20260903030739 | 59 | 292 | 0.0 | 0.0 | 0.00 | 0.00 | 0.00 | 83 | 950.0 |
| 20260903030238 | 59 | 292 | 0.0 | 0.0 | 0.00 | 0.00 | 0.00 | 83 | 950.0 |
| 20260903025739 | 59 | 292 | 0.0 | 0.0 | 0.00 | 0.00 | 0.00 | 83 | 950.0 |
| 20260903025239 | 59 | 292 | 0.0 | 0.0 | 0.00 | 0.00 | 0.00 | 83 | 950.0 |
| 20260903024758 | 59 | 292 | 0.0 | 0.0 | 0.00 | 0.00 | 0.00 | 82 | 950.0 |
| 20260903024239 | 59 | 292 | 0.0 | 0.0 | 0.00 | 0.00 | 0.00 | 82 | 950.0 |
| 20260903023742 | 59 | 292 | 0.0 | 0.0 | 0.00 | 0.00 | 0.00 | 82 | 950.0 |
| 20260903023238 | 59 | 292 | 0.0 | 0.0 | 0.00 | 0.00 | 0.00 | 82 | 950.0 |
| 20260903022740 | 59 | 292 | 0.0 | 0.0 | 0.00 | 0.00 | 0.00 | 82 | 950.0 |
| 20260903022239 | 59 | 292 | 0.0 | 0.0 | 0.00 | 0.00 | 0.00 | 82 | 950.0 |
| 20260903021739 | 59 | 292 | 0.0 | 0.0 | 0.00 | 0.00 | 0.00 | 82 | 950.0 |
| 20260903021259 | 59 | 292 | 0.0 | 0.0 | 0.00 | 0.00 | 0.00 | 81 | 950.0 |
| 20260903020739 | 60 | 292 | 0.0 | 0.0 | 0.00 | 0.00 | 0.00 | 81 | 950.0 |
| 20260903020255 | 60 | 292 | 0.0 | 0.0 | 0.00 | 0.00 | 0.00 | 81 | 950.0 |
| 20260903015739 | 60 | 292 | 0.0 | 0.0 | 0.00 | 0.00 | 0.00 | 81 | 950.0 |
| 20260903015240 | 60 | 292 | 0.0 | 0.0 | 0.00 | 0.00 | 0.00 | 80 | 950.0 |
| 20260903014738 | 60 | 292 | 0.0 | 0.0 | 0.00 | 0.00 | 0.00 | 80 | 950.0 |
| 20260903014238 | 60 | 292 | 0.0 | 0.0 | 0.00 | 0.00 | 0.00 | 80 | 950.0 |
| 20260903013738 | 60 | 292 | 0.0 | 0.0 | 0.00 | 0.00 | 0.00 | 80 | 950.0 |
| 20260903013238 | 60 | 292 | 0.0 | 0.0 | 0.00 | 0.00 | 0.00 | 80 | 950.0 |
| 20260903012757 | 60 | 292 | 0.0 | 0.0 | 0.00 | 0.00 | 0.00 | 80 | 950.0 |
| 20260903012239 | 61 | 292 | 0.0 | 0.0 | 0.00 | 0.00 | 0.00 | 80 | 950.0 |
| 20260903011754 | 61 | 292 | 0.0 | 0.0 | 0.00 | 0.00 | 0.00 | 80 | 950.0 |
| 20260903011239 | 61 | 292 | 0.0 | 0.0 | 0.00 | 0.00 | 0.00 | 80 | 950.0 |
| 20260903010738 | 61 | 292 | 0.0 | 0.0 | 0.00 | 0.00 | 0.00 | 80 | 950.0 |
| 20260903010238 | 62 | 292 | 0.0 | 0.0 | 0.00 | 0.00 | 0.00 | 80 | 950.0 |
| 20260903005740 | 62 | 292 | 0.0 | 0.0 | 0.00 | 0.00 | 0.00 | 80 | 950.0 |
| 20260903005238 | 62 | 292 | 0.0 | 0.0 | 0.00 | 0.00 | 0.00 | 80 | 950.0 |
| 20260903004738 | 62 | 292 | 0.0 | 0.0 | 0.00 | 0.00 | 0.00 | 80 | 950.0 |
| 20260903004256 | 62 | 292 | 0.0 | 0.0 | 0.00 | 0.00 | 0.00 | 80 | 950.0 |
| 20260903003739 | 62 | 292 | 0.0 | 0.0 | 0.00 | 0.00 | 0.00 | 80 | 950.0 |
| 20260903003241 | 62 | 292 | 0.0 | 0.0 | 0.00 | 0.00 | 0.00 | 81 | 950.0 |
| 20260903002738 | 62 | 292 | 0.0 | 0.0 | 0.00 | 0.00 | 0.00 | 81 | 950.0 |
| 20260903002238 | 62 | 292 | 0.0 | 0.0 | 0.00 | 0.00 | 0.00 | 81 | 950.0 |
| 20260903001738 | 62 | 292 | 0.0 | 0.0 | 0.00 | 0.00 | 0.00 | 81 | 950.0 |
| 20260903001238 | 62 | 292 | 0.0 | 0.0 | 0.00 | 0.00 | 0.00 | 81 | 950.0 |
| 20260903000756 | 62 | 292 | 0.0 | 0.0 | 0.00 | 0.00 | 0.00 | 82 | 950.0 |
| 20260903000240 | 62 | 292 | 0.0 | 0.0 | 0.00 | 0.00 | 0.00 | 82 | 950.0 |
| 20260902235752 | 62 | 292 | 0.0 | 0.0 | 0.00 | 0.00 | 0.00 | 82 | 950.0 |
| 20260902235239 | 63 | 292 | 0.0 | 0.0 | 0.00 | 0.00 | 0.00 | 82 | 950.0 |
| 20260902234738 | 63 | 292 | 0.0 | 0.0 | 0.00 | 0.00 | 0.00 | 82 | 950.0 |
| 20260902234312 | 63 | 292 | 0.0 | 0.0 | 0.00 | 0.00 | 0.00 | 82 | 950.0 |
| 20260902233739 | 63 | 292 | 0.0 | 0.0 | 0.00 | 0.00 | 0.00 | 82 | 950.0 |
| 20260902233304 | 63 | 292 | 0.0 | 0.0 | 0.00 | 0.00 | 0.00 | 82 | 950.0 |
| 20260902232737 | 63 | 292 | 0.0 | 0.0 | 0.00 | 0.00 | 0.00 | 82 | 950.0 |
| 20260902232250 | 63 | 292 | 0.0 | 0.0 | 0.00 | 0.00 | 0.00 | 82 | 950.0 |
| 20260902231749 | 63 | 292 | 0.0 | 0.0 | 0.00 | 0.00 | 0.00 | 82 | 950.0 |
| 20260902231246 | 63 | 270 | 0.0 | 0.0 | 0.00 | 0.00 | 0.00 | 82 | 950.0 |
| 20260902230739 | 63 | 270 | 0.0 | 0.0 | 0.00 | 0.00 | 0.00 | 82 | 950.0 |
| 20260902230239 | 63 | 270 | 0.0 | 0.9 | 0.00 | 0.00 | 0.00 | 82 | 950.0 |
| 20260902225805 | 63 | 270 | 0.0 | 0.9 | 0.00 | 0.00 | 0.00 | 82 | 950.0 |
| 20260902225306 | 63 | 270 | 0.0 | 0.9 | 0.00 | 0.00 | 0.00 | 82 | 950.0 |
| 20260902224803 | 63 | 270 | 0.9 | 0.9 | 0.00 | 0.00 | 0.00 | 82 | 950.0 |
| 20260902224238 | 63 | 0 | 0.0 | 0.0 | 0.00 | 0.00 | 0.00 | 82 | 950.0 |
| 20260902223747 | 63 | 0 | 0.0 | 0.0 | 0.00 | 0.00 | 0.00 | 82 | 950.0 |
| 20260902223238 | 63 | 0 | 0.0 | 0.0 | 0.00 | 0.00 | 0.00 | 82 | 950.0 |
| 20260902222821 | 63 | 0 | 0.0 | 0.0 | 0.00 | 0.00 | 0.00 | 82 | 950.0 |
| 20260902222238 | 63 | 0 | 0.0 | 0.0 | 0.00 | 0.00 | 0.00 | 81 | 950.0 |
| 20260902221739 | 63 | 0 | 0.0 | 0.0 | 0.00 | 0.00 | 0.00 | 81 | 950.0 |
| 20260902221303 | 63 | 0 | 0.0 | 0.0 | 0.00 | 0.00 | 0.00 | 81 | 950.0 |
| 20260902220738 | 64 | 0 | 0.0 | 0.0 | 0.00 | 0.00 | 0.00 | 81 | 950.0 |
| 20260902220338 | 64 | 0 | 0.0 | 0.0 | 0.00 | 0.00 | 0.00 | 81 | 950.0 |
| 20260902215738 | 64 | 0 | 0.0 | 0.0 | 0.00 | 0.00 | 0.00 | 81 | 950.0 |
| 20260902215247 | 64 | 0 | 0.0 | 0.0 | 0.00 | 0.00 | 0.00 | 81 | 950.0 |
| 20260902214738 | 64 | 0 | 0.0 | 0.0 | 0.00 | 0.00 | 0.00 | 81 | 950.0 |
| 20260902214238 | 63 | 0 | 0.0 | 0.0 | 0.00 | 0.00 | 0.00 | 81 | 950.0 |
| 20260902213738 | 63 | 0 | 0.0 | 0.0 | 0.00 | 0.00 | 0.00 | 81 | 950.0 |
| 20260902213239 | 63 | 0 | 0.0 | 0.0 | 0.00 | 0.00 | 0.00 | 81 | 950.0 |
| 20260902212804 | 63 | 0 | 0.0 | 0.0 | 0.00 | 0.00 | 0.00 | 81 | 950.0 |
| 20260902212237 | 63 | 0 | 0.0 | 0.0 | 0.00 | 0.00 | 0.00 | 80 | 950.0 |
| 20260902211748 | 63 | 0 | 0.0 | 0.0 | 0.00 | 0.00 | 0.00 | 80 | 950.0 |
| 20260902211238 | 63 | 0 | 0.0 | 0.0 | 0.00 | 0.00 | 0.00 | 80 | 950.0 |
| 20260902210742 | 64 | 0 | 0.0 | 0.0 | 0.00 | 0.00 | 0.00 | 80 | 950.0 |
| 20260902210239 | 64 | 0 | 0.0 | 0.0 | 0.00 | 0.00 | 0.00 | 80 | 950.0 |
| 20260902205737 | 64 | 0 | 0.0 | 0.0 | 0.00 | 0.00 | 0.00 | 79 | 950.0 |
| 20260902205306 | 64 | 0 | 0.0 | 0.0 | 0.00 | 0.00 | 0.00 | 79 | 950.0 |
| 20260902204739 | 64 | 0 | 0.0 | 0.0 | 0.00 | 0.00 | 0.00 | 79 | 950.0 |
| 20260902204259 | 64 | 0 | 0.0 | 0.0 | 0.00 | 0.00 | 0.00 | 79 | 950.0 |
| 20260902203739 | 64 | 0 | 0.0 | 0.0 | 0.00 | 0.00 | 0.00 | 79 | 950.0 |
| 20260902203243 | 64 | 0 | 0.0 | 0.0 | 0.00 | 0.00 | 0.00 | 79 | 950.0 |
| 20260902202738 | 65 | 0 | 0.0 | 0.0 | 0.00 | 0.00 | 0.00 | 78 | 950.0 |
| 20260902202242 | 65 | 0 | 0.0 | 0.0 | 0.00 | 0.00 | 0.00 | 78 | 950.0 |
| 20260902201738 | 65 | 0 | 0.0 | 0.0 | 0.00 | 0.00 | 0.00 | 78 | 950.0 |
| 20260902201237 | 65 | 0 | 0.0 | 0.0 | 0.00 | 0.00 | 0.00 | 78 | 950.0 |
| 20260902200802 | 65 | 0 | 0.0 | 0.0 | 0.00 | 0.00 | 0.00 | 77 | 950.0 |
| 20260902200238 | 65 | 0 | 0.0 | 0.0 | 0.00 | 0.00 | 0.00 | 77 | 950.0 |
| 20260902195758 | 65 | 0 | 0.0 | 0.0 | 0.00 | 0.00 | 0.00 | 77 | 950.0 |
| 20260902195238 | 65 | 0 | 0.0 | 0.0 | 0.00 | 0.00 | 0.00 | 76 | 950.0 |
| 20260902194741 | 65 | 0 | 0.0 | 0.0 | 0.00 | 0.00 | 0.00 | 76 | 950.0 |
| 20260902194238 | 65 | 0 | 0.0 | 0.0 | 0.00 | 0.00 | 0.00 | 75 | 950.0 |
| 20260902193739 | 66 | 0 | 0.0 | 0.0 | 0.00 | 0.00 | 0.00 | 75 | 950.0 |
| 20260902193239 | 66 | 0 | 0.0 | 0.0 | 0.00 | 0.00 | 0.00 | 75 | 950.0 |
| 20260902192738 | 66 | 0 | 0.0 | 0.0 | 0.00 | 0.00 | 0.00 | 75 | 950.0 |
| 20260902192256 | 66 | 0 | 0.0 | 0.0 | 0.00 | 0.00 | 0.00 | 75 | 950.0 |
| 20260902191739 | 66 | 0 | 0.0 | 0.0 | 0.00 | 0.00 | 0.00 | 74 | 950.0 |
| 20260902191242 | 66 | 0 | 0.0 | 0.0 | 0.00 | 0.00 | 0.00 | 74 | 950.0 |
| 20260902190737 | 66 | 0 | 0.0 | 0.0 | 0.00 | 0.00 | 0.00 | 74 | 950.0 |
| 20260902190239 | 66 | 0 | 0.0 | 0.0 | 0.00 | 0.00 | 0.00 | 73 | 950.0 |
| 20260902185737 | 66 | 0 | 0.0 | 0.0 | 0.00 | 0.00 | 0.00 | 72 | 950.0 |
| 20260902185238 | 66 | 0 | 0.0 | 0.0 | 0.00 | 0.00 | 0.00 | 72 | 950.0 |
| 20260902184801 | 67 | 0 | 0.0 | 0.0 | 0.00 | 0.00 | 0.00 | 71 | 949.0 |
| 20260902184238 | 67 | 0 | 0.0 | 0.0 | 0.00 | 0.00 | 0.00 | 70 | 949.0 |
| 20260902183755 | 68 | 0 | 0.0 | 0.0 | 0.00 | 0.00 | 0.00 | 70 | 950.0 |
| 20260902183238 | 68 | 0 | 0.0 | 0.0 | 0.00 | 0.00 | 0.00 | 69 | 950.0 |
| 20260902182740 | 68 | 0 | 0.0 | 0.0 | 0.00 | 0.00 | 0.00 | 69 | 950.0 |
| 20260902182239 | 68 | 0 | 0.0 | 0.0 | 0.00 | 0.00 | 0.00 | 69 | 950.0 |
| 20260902181738 | 68 | 0 | 0.0 | 0.0 | 0.00 | 0.00 | 0.00 | 69 | 950.0 |
| 20260902181239 | 68 | 0 | 0.0 | 0.0 | 0.00 | 0.00 | 0.00 | 68 | 949.0 |
| 20260902180738 | 68 | 0 | 0.0 | 0.0 | 0.00 | 0.00 | 0.00 | 68 | 949.0 |
| 20260902180257 | 68 | 0 | 0.0 | 0.0 | 0.00 | 0.00 | 0.00 | 68 | 949.0 |
| 20260902175737 | 68 | 0 | 0.0 | 0.0 | 0.00 | 0.00 | 0.00 | 67 | 949.0 |
| 20260902175253 | 68 | 0 | 0.0 | 0.0 | 0.00 | 0.00 | 0.00 | 67 | 949.0 |
| 20260902174738 | 68 | 0 | 0.0 | 0.0 | 0.00 | 0.00 | 0.00 | 68 | 949.0 |
| 20260902174239 | 68 | 0 | 0.0 | 0.0 | 0.00 | 0.00 | 0.00 | 67 | 949.0 |
| 20260902173737 | 69 | 0 | 0.0 | 0.0 | 0.00 | 0.00 | 0.00 | 67 | 949.0 |
| 20260902173239 | 69 | 0 | 0.0 | 0.0 | 0.00 | 0.00 | 0.00 | 66 | 949.0 |
| 20260902172738 | 69 | 0 | 0.0 | 0.0 | 0.00 | 0.00 | 0.00 | 66 | 949.0 |
| 20260902172238 | 69 | 0 | 0.0 | 0.0 | 0.00 | 0.00 | 0.00 | 66 | 949.0 |
| 20260902171757 | 69 | 0 | 0.0 | 0.0 | 0.00 | 0.00 | 0.00 | 66 | 949.0 |
| 20260902171239 | 70 | 0 | 0.0 | 0.0 | 0.00 | 0.00 | 0.00 | 66 | 949.0 |
| 20260902170743 | 70 | 0 | 0.0 | 0.0 | 0.00 | 0.00 | 0.00 | 66 | 949.0 |
| 20260902170239 | 70 | 0 | 0.0 | 0.0 | 0.00 | 0.00 | 0.00 | 66 | 949.0 |
| 20260902165738 | 70 | 0 | 0.0 | 0.0 | 0.00 | 0.00 | 0.00 | 66 | 949.0 |
| 20260902165237 | 70 | 0 | 0.0 | 0.0 | 0.00 | 0.00 | 0.00 | 66 | 949.0 |
| 20260902164738 | 70 | 0 | 0.0 | 0.0 | 0.00 | 0.00 | 0.00 | 65 | 949.0 |